Wind_Speed
12 6 14 28 22 30 10 16 19 15 13 12 12 9 7 5 3 2 2 1 5 5 4 5 11 11 8 12 9 16 27 33 29 25 23 24 23 21 20 19 21 21 19 17 17 18 19 18 18
11 2 10 36 34 14 11 18 17 19 20 16 15 13 10 7 5 6 4 3 2 6 6 5 9 13 14 11 10 11 12 33 33 25 23 21 25 23 20 17 17 19 18 15 18 19 18 18 17
8 5 3 22 32 10 15 5 28 19 19 17 15 15 13 13 10 7 3 1 1 5 5 4 9 12 15 13 7 11 18 31 36 27 24 23 22 22 20 18 16 17 18 16 17 19 19 18 17
5 10 27 34 11 13 18 11 15 16 20 21 17 11 17 15 16 14 5 1 1 4 6 7 5 11 12 9 12 12 11 27 32 27 27 24 21 19 20 19 16 16 16 17 17 17 19 17 15
18 23 21 25 8 12 15 17 15 13 16 8 15 20 19 22 22 19 11 2 6 4 7 9 8 3 10 12 12 11 10 16 28 25 26 24 22 20 19 19 17 15 15 17 16 17 17 16 15
24 34 30 21 14 14 14 13 20 10 12 21 20 17 22 22 21 20 15 7 8 7 8 10 9 5 12 15 12 9 9 15 29 26 26 25 21 21 19 19 18 15 15 15 16 16 17 16 15
25 24 16 9 16 12 15 12 8 11 14 19 21 18 18 19 21 21 16 15 8 8 8 10 10 11 16 13 19 15 14 13 25 26 24 25 22 20 19 17 17 18 16 16 16 15 16 16 14
20 24 12 8 19 9 9 10 9 10 18 19 14 16 15 19 21 21 17 14 10 9 9 9 12 15 7 16 17 19 17 20 19 23 22 24 21 20 19 18 18 17 17 16 16 16 16 16 14
13 22 10 5 5 8 11 7 12 16 14 21 11 16 16 15 17 18 19 13 12 10 10 9 10 13 15 3 14 19 22 21 20 20 22 24 23 22 22 21 19 19 17 16 16 16 15 15 15
13 19 6 6 6 8 9 10 12 10 9 13 16 12 11 11 11 14 16 16 12 10 10 10 8 9 10 9 13 20 22 24 24 27 26 25 22 21 20 19 20 19 19 18 16 16 16 16 15
10 7 5 7 9 9 10 10 9 4 9 12 17 11 9 8 9 10 13 16 16 13 11 9 7 4 4 6 8 11 19 25 25 24 26 23 18 17 18 19 19 19 20 19 18 17 17 17 16
7 6 4 5 7 9 8 9 10 10 6 3 13 8 8 6 8 8 9 12 15 15 13 11 7 6 2 3 4 6 4 11 19 18 24 19 18 19 18 18 17 19 20 20 19 19 19 18 16
4 6 7 7 7 6 8 9 9 8 7 3 9 9 5 5 8 6 8 9 11 13 14 14 9 7 5 1 2 3 3 2 2 1 4 23 17 17 16 17 17 17 17 18 19 19 19 18 17
7 8 7 7 7 7 7 8 7 8 8 5 5 14 5 7 6 8 6 7 9 12 12 12 10 7 5 2 0 4 3 2 5 5 4 2 3 18 22 19 18 15 15 15 18 19 19 18 18
8 9 5 5 6 8 10 3 4 10 9 6 3 9 14 5 8 6 8 3 9 12 10 8 9 8 4 2 2 3 4 6 7 7 6 6 6 8 8 19 24 21 19 15 15 16 17 17 17
8 16 11 15 8 5 6 5 20 9 9 6 5 10 11 11 8 7 7 8 11 11 11 8 6 6 6 4 0 2 2 4 5 10 11 9 8 9 9 5 16 21 20 20 13 16 17 18 18
18 7 6 12 7 4 2 1 19 11 12 10 11 8 11 16 13 12 10 8 11 9 11 8 9 7 5 5 3 2 3 4 3 6 10 10 11 14 15 14 13 14 13 18 17 17 18 19 19
17 11 5 8 12 7 5 6 18 9 9 11 10 13 16 17 16 10 14 15 13 11 11 10 11 14 12 9 8 7 5 5 6 7 8 8 11 11 20 21 20 21 20 19 20 20 20 20 21
14 15 11 10 4 6 7 11 16 9 13 14 11 12 14 15 14 13 17 19 18 13 12 13 17 17 18 17 13 11 8 6 6 6 11 12 10 11 13 25 26 24 24 23 23 22 21 24 26
10 9 4 10 3 5 4 6 13 13 16 18 14 15 16 14 16 14 18 21 24 19 16 17 18 20 19 18 18 20 21 16 15 13 10 11 11 11 11 18 26 26 27 24 22 22 23 25 26
5 5 8 10 10 9 8 11 19 27 27 20 12 12 15 16 16 16 15 22 26 25 21 22 23 24 25 25 25 24 25 24 22 22 18 17 16 13 12 12 17 24 25 25 25 25 25 26 24
1 16 8 8 4 6 9 16 25 23 27 28 20 11 9 18 20 18 15 17 26 29 26 27 27 28 31 33 34 27 25 29 32 21 29 18 17 14 13 13 11 18 21 21 21 21 23 23 23
15 5 8 7 7 6 7 6 13 15 9 10 21 30 19 17 20 21 22 20 20 22 26 32 31 33 37 39 40 36 30 31 31 33 27 27 19 23 15 13 14 11 16 17 16 16 18 19 19
12 10 7 11 9 7 9 7 7 10 9 12 26 42 31 25 23 22 23 24 25 25 24 29 33 33 37 38 41 42 40 39 38 35 37 35 32 25 23 18 13 10 11 13 13 12 12 13 12
9 8 9 9 14 14 8 12 18 26 29 32 38 43 40 34 29 20 21 25 28 30 31 32 32 36 39 43 47 47 46 46 46 43 37 40 43 37 23 21 16 11 8 9 10 9 7 6 5
11 15 8 8 8 13 13 13 20 28 31 28 29 33 37 36 32 24 25 23 28 32 35 37 39 39 41 43 47 49 48 46 48 41 42 45 48 45 33 27 21 16 16 13 11 9 6 7 7
18 14 14 14 12 11 11 16 26 23 29 35 28 24 27 29 28 26 27 28 26 30 33 36 38 42 45 46 48 48 49 53 50 47 48 49 56 46 33 30 26 20 21 19 16 14 12 11 10
18 21 19 13 11 9 8 13 19 26 30 39 40 37 32 29 24 24 28 29 27 25 30 37 42 45 47 50 51 47 44 44 48 53 54 57 50 43 45 42 37 27 26 24 21 18 15 14 15
18 15 15 10 11 14 11 10 23 29 36 41 41 43 38 28 30 29 29 31 30 30 31 33 36 41 47 50 52 52 46 42 44 48 50 53 56 50 49 47 39 37 32 30 25 24 20 17 16
24 26 25 24 18 13 22 20 25 33 37 41 44 37 36 34 29 34 34 34 35 35 38 41 40 45 48 50 52 50 47 44 44 45 46 48 53 52 51 50 54 57 42 35 32 29 25 22 22
Wind_Direction
121 120 127 98 92 79 43 57 37 31 44 36 67 69 77 84 90 88 52 91 106 106 119 174 196 195 179 201 165 175 180 165 154 155 155 152 146 143 141 144 148 148 146 137 136 135 129 127 120
139 169 112 88 82 78 54 47 40 38 39 39 29 39 48 39 72 89 38 357 100 101 122 196 201 185 177 176 189 214 183 182 158 155 159 160 148 147 147 152 153 151 153 145 141 139 134 130 122
203 187 173 68 70 83 67 1 80 42 20 29 37 24 29 26 35 35 75 344 350 77 77 120 197 186 182 191 181 140 178 173 154 159 160 162 151 151 151 154 158 154 154 149 146 141 139 133 128
213 158 47 72 82 40 58 46 60 35 20 22 34 20 34 33 23 24 65 130 144 64 69 71 152 190 179 167 168 193 194 184 158 160 163 160 158 159 158 159 162 163 158 150 149 146 140 136 136
117 99 103 82 58 56 49 354 62 23 24 8 27 31 28 29 27 26 37 114 125 92 68 70 64 150 189 183 195 199 204 179 159 167 161 162 163 166 168 160 162 166 166 156 153 151 146 145 144
100 74 54 33 47 40 44 37 27 17 14 339 53 57 37 33 29 25 37 65 110 107 83 68 40 2 191 193 201 200 213 207 162 171 168 167 168 170 175 164 161 168 173 163 160 157 152 154 152
48 68 48 85 84 15 45 15 46 355 3 353 3 29 36 30 27 29 32 80 90 80 79 76 55 53 199 191 193 203 198 195 182 173 173 176 176 175 177 173 169 171 175 171 169 167 162 160 164
72 79 54 54 23 348 36 10 24 5 13 4 353 12 28 23 25 28 36 51 55 55 59 65 60 51 107 210 197 201 199 191 188 179 175 177 177 176 180 179 179 179 177 173 177 175 173 170 174
68 63 2 9 14 11 10 32 11 38 38 338 327 348 360 11 21 27 36 38 57 44 43 48 63 61 41 224 207 195 188 190 194 193 186 184 184 181 179 181 182 182 181 178 178 182 184 182 180
53 52 278 0 16 15 6 2 15 48 55 3 341 359 338 354 10 23 36 43 41 55 42 42 45 80 59 27 213 207 191 189 178 178 179 180 184 179 180 178 181 184 185 182 182 185 188 192 189
65 97 11 351 353 355 356 1 349 2 32 287 314 348 324 330 355 10 29 40 45 42 52 39 54 63 87 71 62 180 180 179 179 185 182 182 176 187 183 186 183 182 189 187 186 191 194 196 199
45 37 17 339 332 330 338 343 345 351 358 304 305 343 326 317 339 350 11 28 41 44 40 39 34 55 81 119 97 71 84 191 193 196 192 187 184 194 190 191 187 189 192 193 194 198 199 201 204
6 5 341 327 321 313 311 320 337 345 8 358 303 342 335 318 334 329 351 9 17 28 30 40 20 37 40 6 200 145 157 177 145 174 216 205 197 196 198 190 196 195 197 198 204 208 208 206 208
347 340 330 328 341 325 321 319 334 351 350 327 321 321 342 305 322 323 326 341 357 358 14 25 48 26 32 49 342 238 227 231 252 214 211 291 238 219 205 196 194 200 202 211 209 215 216 215 217
352 339 324 9 5 340 335 10 10 339 328 342 340 300 316 299 305 307 321 308 340 345 341 6 35 48 45 50 140 189 213 234 231 245 248 223 256 290 216 220 207 193 203 210 217 218 224 222 223
4 56 5 292 346 347 13 252 299 335 321 315 264 276 291 297 294 285 285 290 311 317 318 325 356 20 40 61 140 231 214 209 241 239 233 240 247 247 253 269 201 207 203 198 229 232 228 227 228
19 25 254 295 311 294 259 220 279 320 301 281 275 270 296 287 289 279 281 288 285 304 323 302 310 308 335 353 357 279 249 236 246 210 219 225 233 239 235 230 231 232 220 207 217 237 237 237 234
190 205 241 288 277 327 16 270 290 307 288 293 285 275 282 279 285 299 269 274 278 277 302 314 305 296 289 292 300 310 303 271 259 232 216 240 246 249 228 224 229 229 227 231 242 243 241 243 243
216 248 263 281 297 284 258 295 295 324 313 313 312 301 292 287 287 288 258 264 266 264 275 285 290 300 281 280 284 286 291 293 278 246 232 241 242 252 238 220 221 229 232 231 236 241 244 247 247
256 244 28 277 315 290 254 294 303 329 326 313 311 300 294 296 300 286 270 258 264 262 261 272 277 282 289 281 281 291 292 280 279 274 268 260 252 245 266 238 228 223 230 234 238 239 239 244 248
244 248 219 220 279 6 325 332 290 316 324 319 292 294 302 308 303 299 273 254 254 259 259 260 263 267 274 268 269 285 291 276 262 272 276 280 279 271 256 248 227 224 227 229 232 243 246 247 254
53 241 249 264 244 62 270 118 292 294 323 318 317 324 307 309 305 300 288 265 253 252 256 256 260 262 267 267 274 271 281 277 271 275 274 265 278 280 277 259 226 220 227 229 234 238 247 248 249
252 257 279 300 284 243 258 287 259 300 268 264 273 312 317 304 297 297 296 293 280 262 253 255 255 259 266 276 274 280 273 270 270 274 277 267 269 273 258 255 237 223 235 233 232 234 245 249 249
286 291 300 21 28 317 319 172 262 220 236 243 272 291 309 305 295 287 284 288 289 285 271 255 252 255 263 266 269 274 273 269 267 268 270 267 265 253 246 250 242 236 236 243 240 241 253 259 259
281 298 337 298 279 252 208 229 257 258 256 267 275 292 295 301 300 305 287 289 288 287 283 277 267 259 253 256 259 263 266 267 268 265 262 267 265 262 223 240 245 238 226 244 251 238 229 251 260
278 279 286 248 216 229 257 276 272 274 284 296 284 274 278 284 298 306 297 290 283 281 280 281 281 279 277 271 265 266 265 265 265 257 255 262 265 267 235 233 236 246 248 236 240 244 232 246 257
274 282 255 276 267 287 299 282 271 276 285 285 287 291 290 296 302 299 292 288 283 281 281 280 278 279 279 277 275 273 271 267 265 264 262 261 260 267 280 225 230 236 246 250 244 246 243 242 247
276 277 282 281 273 280 262 253 267 281 281 288 294 299 303 303 302 289 284 289 290 287 275 271 272 273 273 275 276 275 272 268 264 259 257 263 258 257 258 263 235 223 235 237 246 244 247 249 255
291 305 299 273 244 252 264 282 260 256 265 273 284 293 298 304 297 295 288 291 295 292 288 285 280 275 272 273 275 277 276 271 267 262 259 254 258 256 255 258 244 231 231 233 236 240 243 253 251
287 276 271 276 267 252 240 226 286 279 277 280 282 291 300 301 298 295 296 297 299 297 294 292 289 285 282 281 280 279 278 273 268 262 258 254 253 252 251 253 249 253 236 224 229 230 236 243 253
Height
5896 5896 5895 5891 5888 5889 5894 5888 5887 5886 5886 5884 5882 5880 5878 5877 5875 5878 5876 5877 5875 5875 5874 5873 5873 5875 5877 5879 5881 5884 5884 5885 5891 5897 5901 5903 5903 5905 5908 5910 5912 5913 5917 5917 5918 5921 5922 5925 5925
5896 5894 5886 5884 5891 5904 5898 5891 5889 5889 5887 5886 5883 5881 5880 5879 5876 5876 5874 5876 5875 5876 5876 5874 5874 5874 5877 5880 5883 5884 5885 5888 5891 5898 5902 5906 5903 5906 5909 5914 5915 5916 5918 5920 5920 5922 5925 5926 5928
5897 5901 5893 5883 5885 5907 5901 5890 5876 5891 5890 5887 5886 5884 5880 5879 5877 5877 5877 5875 5874 5874 5876 5875 5875 5875 5877 5881 5884 5885 5887 5889 5891 5898 5902 5907 5905 5907 5910 5913 5917 5917 5919 5920 5923 5923 5926 5929 5930
5898 5901 5891 5886 5907 5908 5901 5896 5895 5897 5895 5893 5891 5890 5883 5880 5877 5875 5877 5875 5874 5875 5876 5875 5875 5875 5876 5880 5885 5887 5890 5889 5893 5899 5902 5905 5906 5909 5912 5913 5917 5919 5921 5921 5925 5926 5927 5930 5932
5897 5902 5896 5900 5907 5907 5904 5892 5897 5899 5900 5895 5893 5891 5887 5881 5878 5876 5876 5876 5874 5876 5877 5876 5877 5877 5877 5879 5883 5886 5890 5890 5894 5901 5901 5904 5907 5910 5914 5914 5917 5920 5923 5924 5927 5928 5929 5932 5934
5884 5902 5903 5909 5909 5907 5907 5907 5906 5904 5903 5891 5860 5891 5891 5886 5882 5880 5878 5878 5877 5878 5878 5878 5879 5878 5878 5881 5883 5886 5890 5892 5894 5900 5902 5906 5908 5910 5915 5915 5917 5921 5925 5925 5927 5930 5930 5933 5934
5900 5910 5909 5910 5907 5910 5910 5911 5909 5904 5903 5900 5893 5895 5894 5890 5885 5883 5879 5881 5880 5879 5879 5880 5881 5880 5880 5882 5885 5887 5891 5893 5897 5899 5903 5906 5909 5911 5915 5917 5918 5921 5924 5926 5929 5931 5932 5934 5936
5913 5912 5918 5919 5915 5915 5912 5911 5908 5907 5904 5903 5899 5898 5896 5892 5889 5887 5884 5881 5882 5881 5880 5880 5881 5881 5883 5884 5886 5889 5891 5895 5897 5900 5903 5907 5909 5912 5915 5917 5919 5922 5924 5927 5930 5932 5933 5935 5936
5916 5914 5919 5919 5917 5915 5913 5912 5910 5909 5910 5905 5901 5899 5897 5895 5894 5892 5889 5886 5886 5884 5884 5882 5883 5883 5884 5885 5887 5889 5892 5894 5898 5901 5904 5907 5910 5912 5914 5917 5919 5921 5925 5927 5930 5932 5934 5935 5936
5916 5913 5921 5919 5917 5916 5914 5913 5912 5913 5912 5908 5903 5902 5901 5900 5898 5896 5893 5891 5889 5890 5888 5887 5886 5886 5886 5889 5889 5891 5893 5895 5898 5901 5904 5907 5912 5911 5914 5917 5919 5922 5925 5927 5930 5932 5934 5935 5936
5919 5919 5919 5917 5916 5915 5915 5914 5913 5913 5916 5912 5904 5903 5903 5902 5901 5900 5898 5895 5893 5891 5892 5892 5891 5891 5891 5891 5893 5894 5895 5897 5900 5903 5905 5908 5914 5913 5914 5918 5920 5921 5924 5927 5929 5931 5933 5935 5936
5919 5919 5918 5917 5916 5915 5914 5914 5914 5913 5912 5910 5905 5904 5904 5904 5903 5902 5901 5899 5898 5896 5894 5894 5894 5893 5894 5894 5896 5897 5898 5900 5902 5905 5907 5909 5911 5912 5915 5918 5920 5921 5924 5927 5929 5931 5932 5934 5937
5919 5919 5918 5917 5916 5915 5914 5914 5913 5912 5911 5910 5907 5905 5905 5905 5904 5904 5904 5903 5901 5900 5899 5898 5895 5896 5896 5897 5898 5899 5901 5902 5902 5906 5907 5909 5911 5913 5915 5918 5921 5923 5924 5926 5929 5930 5932 5933 5936
5918 5918 5918 5917 5916 5916 5915 5914 5913 5912 5911 5910 5908 5903 5906 5906 5906 5905 5905 5905 5904 5903 5902 5900 5902 5899 5898 5898 5899 5901 5902 5903 5905 5905 5909 5908 5910 5913 5915 5916 5920 5923 5924 5926 5928 5930 5932 5933 5935
5918 5918 5916 5917 5917 5916 5914 5913 5912 5912 5911 5910 5909 5907 5903 5905 5906 5905 5905 5906 5906 5905 5905 5903 5901 5902 5901 5900 5901 5901 5902 5903 5905 5906 5907 5910 5910 5911 5913 5916 5917 5920 5923 5926 5928 5929 5931 5932 5934
5919 5918 5921 5918 5919 5918 5916 5918 5912 5912 5911 5910 5909 5908 5906 5905 5905 5905 5905 5906 5906 5906 5906 5905 5904 5903 5902 5902 5901 5902 5902 5902 5903 5906 5907 5908 5910 5912 5913 5913 5917 5919 5922 5923 5926 5929 5930 5931 5932
5921 5927 5927 5922 5917 5918 5918 5918 5911 5911 5910 5909 5909 5908 5906 5904 5904 5903 5904 5904 5905 5906 5906 5906 5906 5905 5904 5903 5903 5903 5902 5902 5902 5903 5905 5905 5906 5908 5911 5913 5915 5917 5919 5922 5924 5927 5929 5931 5931
5921 5923 5923 5920 5917 5916 5917 5915 5909 5911 5909 5907 5907 5906 5905 5904 5902 5904 5902 5902 5903 5905 5906 5906 5906 5907 5906 5905 5905 5905 5905 5904 5904 5904 5904 5905 5905 5905 5905 5908 5912 5914 5917 5920 5922 5924 5926 5928 5929
5917 5917 5917 5918 5916 5915 5914 5912 5908 5910 5906 5904 5905 5904 5903 5902 5902 5902 5900 5900 5900 5902 5904 5904 5905 5905 5906 5906 5906 5906 5906 5905 5905 5904 5905 5904 5903 5902 5902 5903 5906 5910 5913 5915 5917 5919 5922 5923 5926
5914 5914 5916 5916 5914 5914 5913 5913 5909 5908 5907 5904 5904 5902 5899 5900 5898 5899 5897 5897 5897 5899 5901 5901 5902 5903 5903 5903 5904 5905 5905 5906 5905 5904 5904 5904 5902 5901 5901 5900 5901 5904 5907 5910 5912 5915 5917 5918 5920
5912 5912 5914 5913 5912 5911 5911 5910 5907 5906 5905 5901 5899 5899 5898 5896 5895 5895 5895 5895 5894 5896 5898 5897 5897 5899 5899 5899 5900 5901 5901 5903 5903 5903 5902 5904 5904 5901 5899 5897 5896 5899 5902 5904 5906 5910 5913 5913 5915
5912 5908 5909 5909 5910 5912 5912 5917 5909 5905 5902 5898 5893 5895 5896 5894 5893 5892 5892 5892 5891 5892 5893 5893 5894 5894 5894 5893 5895 5896 5898 5897 5899 5901 5901 5902 5904 5903 5901 5898 5895 5897 5900 5901 5903 5904 5908 5910 5909
5906 5907 5907 5908 5907 5908 5910 5914 5908 5907 5904 5902 5894 5891 5891 5891 5890 5888 5887 5887 5887 5888 5888 5888 5889 5889 5888 5888 5888 5890 5891 5892 5893 5896 5897 5898 5899 5901 5899 5898 5896 5894 5899 5899 5900 5901 5904 5906 5906
5904 5905 5906 5905 5905 5909 5909 5913 5907 5903 5902 5898 5892 5888 5887 5886 5885 5885 5884 5882 5882 5881 5882 5882 5883 5883 5882 5883 5881 5882 5884 5885 5886 5889 5890 5892 5891 5894 5895 5897 5894 5893 5896 5899 5898 5898 5901 5903 5903
5902 5902 5904 5907 5905 5906 5907 5908 5905 5900 5899 5897 5891 5887 5883 5881 5879 5879 5880 5878 5876 5875 5875 5875 5875 5875 5876 5876 5875 5875 5876 5877 5879 5882 5884 5881 5881 5881 5888 5893 5893 5892 5892 5896 5898 5896 5897 5901 5901
5899 5899 5901 5901 5904 5907 5904 5904 5902 5895 5893 5894 5892 5887 5881 5878 5874 5875 5873 5873 5871 5870 5869 5868 5867 5867 5866 5866 5866 5866 5866 5868 5869 5871 5874 5873 5873 5873 5871 5885 5887 5888 5892 5891 5894 5895 5894 5898 5899
5893 5895 5896 5896 5897 5898 5901 5899 5892 5890 5887 5884 5883 5880 5877 5874 5871 5869 5867 5866 5866 5864 5862 5861 5859 5858 5856 5855 5854 5854 5854 5855 5858 5858 5859 5863 5865 5864 5867 5875 5877 5879 5887 5888 5888 5891 5890 5892 5894
5891 5889 5890 5891 5893 5895 5899 5894 5887 5883 5881 5876 5874 5871 5869 5868 5866 5864 5861 5858 5857 5857 5855 5852 5850 5847 5845 5843 5841 5842 5843 5842 5843 5845 5848 5850 5854 5858 5860 5863 5868 5871 5878 5881 5882 5885 5885 5887 5890
5883 5883 5883 5886 5887 5887 5889 5892 5882 5877 5875 5872 5869 5866 5861 5861 5858 5855 5853 5850 5848 5846 5844 5841 5838 5835 5833 5831 5829 5828 5830 5831 5830 5830 5834 5836 5840 5846 5850 5853 5858 5863 5867 5872 5875 5879 5880 5882 5885
5880 5879 5878 5878 5880 5882 5880 5883 5875 5870 5868 5865 5861 5859 5855 5853 5851 5847 5844 5842 5838 5835 5831 5828 5826 5822 5819 5817 5815 5816 5815 5816 5817 5817 5819 5822 5826 5832 5838 5843 5843 5842 5839 5855 5864 5868 5871 5875 5878